Location: Chamerau
(49.1969°N, 12.7525°E)
Time: 08:00:25
(UTC+00:00)

Cosmos 1844 - Pass Details

Date: 18 September 2020
Orbit: 824 x 866 km, 70.9° (Epoch: 24 October)

Event Time Altitude Azimuth Distance (km) Brightness Sun altitude
Rises 19:26:53 0° 197° (SSW) 3,412 6.7 -21.4°
Reaches altitude 10° 19:29:21 10° 194° (SSW) 2,475 6.0 -21.7°
Maximum altitude 19:34:58 66° 114° (ESE) 921 3.6 -22.5°
Drops below altitude 10° 19:40:34 10° 33° (NNE) 2,463 6.1 -23.3°
Sets 19:43:01 0° 31° (NNE) 3,395 6.9 -23.6°
